Weather History for KACT - December, 2013

Change the Weather History Date:

Saturday, December 14, 2013

  Actual Average Record
Temperature  
Mean Temperature 39 °F 48 °F  
Max Temperature 47 °F 59 °F 80 °F (1995)
Min Temperature 31 °F 37 °F 19 °F (1919)
Degree Days  
Heating Degree Days 26 17  
Month to date heating degree days 316 217  
Since 1 July heating degree days 730 545  
Cooling Degree Days 0 0  
Month to date cooling degree days 0 0  
Year to date cooling degree days 2870 2792  
Moisture  
Dew Point 38 °F    
Average Humidity 81    
Maximum Humidity 100    
Minimum Humidity 62    
Precipitation  
Precipitation T in 0.09 in 2.20 in (1906)
Month to date precipitation 0.34 1.24  
Year to date precipitation 36.89 33.18  
Snow  
Snow 0.00 in 0.00 in 0.00 in ()
Month to date snowfall T 0.0  
Since 1 July snowfall T 0.1  
Snow Depth 0.00 in    
Sea Level Pressure  
Sea Level Pressure 30.06 in    
Wind  
Wind Speed 11 mph (WNW)    
Max Wind Speed 25 mph    
Max Gust Speed 32 mph    
Visibility 5 miles    
Events Fog , Rain    
T = Trace of Precipitation, MM = Missing Value Source: NWS Daily Summary

Daily Weather History Graph

Daily Weather History Graph

Search for Another Location

Airport or City:

Trip Planner

Search our weather history database for the weather conditions in past years. The results will help you decide how hot, cold, wet, or windy it might be!

Date:

Astronomy

Dec. 14, 2013 Rise Set
Actual Time 7:20 AM CST 5:26 PM CST
Civil Twilight 6:53 AM CST 5:53 PM CST
Nautical Twilight 6:23 AM CST 6:24 PM CST
Astronomical Twilight 5:53 AM CST 6:53 PM CST
Moon 3:44 PM CST (12/14) 4:48 AM CST (12/14)
Length of Visible Light 11h 00m
Length of Day
10h 06m
Waxing Gibbous, 94% of the Moon is Illuminated
Dec 14
Waxing Gibbous
Dec 17
Full
Dec 25
Last Quarter
Jan 1
New
Jan 7
First Quarter

Hourly Weather History & Observations

Time (CST) Temp. Windchill Dew Point Humidity Pressure Visibility Wind Dir Wind Speed Gust Speed Precip Events Conditions
12:29 AM 46.4 °F 41.1 °F 46.4 °F 100% 29.85 in 2.5 mi SSW 11.5 mph - N/A   Overcast
12:51 AM 46.9 °F - 46.9 °F 100% 29.84 in 2.0 mi SSW 9.2 mph - N/A   Overcast
1:16 AM 46.4 °F 41.1 °F 46.4 °F 100% 29.83 in 1.5 mi SSW 11.5 mph - N/A   Overcast
1:51 AM 45.0 °F 41.8 °F 45.0 °F 100% 29.82 in 1.0 mi SSW 5.8 mph - N/A   Overcast
2:00 AM 44.6 °F 42.2 °F 42.8 °F 93% 29.82 in 0.5 mi South 4.6 mph - N/A Fog Fog
2:08 AM 42.8 °F 38.0 °F 42.8 °F 100% 29.82 in 0.2 mi South 8.1 mph - N/A Fog Fog
2:29 AM 42.8 °F - 42.8 °F 100% 29.82 in 1.0 mi Calm Calm - N/A   Mist
2:35 AM 42.8 °F 38.6 °F 42.8 °F 100% 29.82 in 2.0 mi SSW 6.9 mph - N/A   Scattered Clouds
2:48 AM 42.8 °F 38.6 °F 42.8 °F 100% 29.82 in 4.0 mi SSW 6.9 mph - N/A   Partly Cloudy
2:51 AM 43.0 °F 39.5 °F 43.0 °F 100% 29.82 in 4.0 mi SSW 5.8 mph - N/A   Clear
3:51 AM 42.1 °F 36.1 °F 42.1 °F 100% 29.83 in 5.0 mi South 10.4 mph - N/A   Clear
4:51 AM 41.0 °F 39.0 °F 41.0 °F 100% 29.85 in 6.0 mi WSW 3.5 mph - N/A   Clear
5:51 AM 42.1 °F 38.4 °F 41.0 °F 96% 29.89 in 10.0 mi West 5.8 mph - N/A   Clear
6:51 AM 45.0 °F 39.7 °F 41.0 °F 86% 29.95 in 10.0 mi NNW 10.4 mph - N/A   Overcast
7:10 AM 44.6 °F 41.4 °F 42.8 °F 93% 29.97 in 10.0 mi NW 5.8 mph - N/A   Overcast
7:51 AM 44.1 °F 36.8 °F 42.1 °F 93% 30.02 in 7.0 mi NNW 16.1 mph 27.6 mph N/A   Overcast
8:51 AM 45.0 °F 38.5 °F 42.1 °F 90% 30.07 in 5.0 mi NNW 13.8 mph - N/A   Overcast
9:51 AM 46.0 °F 39.0 °F 43.0 °F 89% 30.10 in 6.0 mi North 17.3 mph 23.0 mph N/A   Overcast
10:51 AM 44.1 °F 36.8 °F 42.1 °F 93% 30.14 in 2.5 mi NNW 16.1 mph - 0.00 in Rain Light Rain
11:51 AM 44.1 °F 36.8 °F 41.0 °F 89% 30.15 in 2.5 mi NNW 16.1 mph 28.8 mph 0.00 in   Overcast
12:51 PM 45.0 °F 36.6 °F 39.0 °F 80% 30.17 in 2.5 mi NNW 21.9 mph 28.8 mph N/A   Haze
1:51 PM 45.0 °F 36.6 °F 36.0 °F 71% 30.17 in 2.5 mi North 21.9 mph 29.9 mph N/A   Haze
1:58 PM 44.6 °F 35.9 °F 35.6 °F 71% 30.17 in 2.5 mi NNW 23.0 mph 31.1 mph N/A   Haze
2:51 PM 42.1 °F 33.3 °F 34.0 °F 73% 30.19 in 6.0 mi North 19.6 mph 29.9 mph N/A   Haze
3:42 PM 44.6 °F 36.6 °F 33.8 °F 66% 30.21 in 6.0 mi NNW 19.6 mph 26.5 mph N/A   Haze
3:51 PM 44.1 °F 37.1 °F 33.1 °F 65% 30.21 in 7.0 mi NNW 15.0 mph 26.5 mph N/A   Partly Cloudy
4:51 PM 44.1 °F 37.4 °F 32.0 °F 63% 30.24 in 7.0 mi NNW 13.8 mph - N/A   Clear
5:51 PM 41.0 °F 35.2 °F 30.9 °F 67% 30.26 in 8.0 mi NNW 9.2 mph - N/A   Clear
6:51 PM 39.0 °F 32.8 °F 30.0 °F 70% 30.27 in 8.0 mi NW 9.2 mph - N/A   Clear
7:51 PM 37.9 °F 30.9 °F 30.0 °F 73% 30.29 in 8.0 mi NNW 10.4 mph - N/A   Clear
8:51 PM 37.0 °F 30.4 °F 30.0 °F 76% 30.31 in 8.0 mi NNW 9.2 mph - N/A   Clear
9:51 PM 36.0 °F 32.1 °F 30.0 °F 79% 30.33 in 8.0 mi NW 4.6 mph - N/A   Clear
10:51 PM 30.9 °F - 27.0 °F 85% 30.35 in 7.0 mi Calm Calm - N/A   Clear
11:51 PM 34.0 °F 28.0 °F 28.0 °F 79% 30.35 in 8.0 mi NW 6.9 mph - N/A   Clear